Date String (YYYY-MM-DD hh:mm:ss) UTC,Instrument flags,absolute air pressure of the measurement (hPa),sample flow rate (lpm),inlet stack bypass flow (lpm),air temperature of the measurement (°C),ambient temperature measured by the external sensor (°C),aerosol sample conditioner tube jacket temperature (°C),OPC LED temperature (°C),internal box temperature (°C),relative humidity of the measurement (%),span deviation,mass concentration of particles derived from Lorenz-Mie calculation of OPC scattering (μg/m³),mass concentration of particles derived from Lorenz-Mie calculation of OPC scattering (μg/m³),mass concentration of particles derived from Lorenz-Mie calculation of OPC scattering (μg/m³)
DateTimeUTC,F1_M11,P_M11,Q1_M11,Q2_M11,T1_M11,T2_M11,T3_M11,T4_M11,T5_M11,U1_M11,ZSPAN_M11,X2_M11,X0_M11,X1_M11
2023-10-15 16:00:00,SystemResetWarning,0840.6,5.00,000.00,026.1,025.0,000.0,034.4,027.9,15.3,0000.0,0003.75,0008.05,0003.42
2023-10-15 16:01:00,SystemResetWarning,0840.6,5.01,000.00,026.1,025.0,000.0,034.4,027.9,15.4,0000.0,0003.77,0008.13,0003.42
2023-10-15 16:02:00,SystemResetWarning,0840.6,5.00,000.00,026.1,025.0,000.0,034.4,027.9,15.2,0000.0,0003.79,0008.78,0003.42
2023-10-15 16:03:00,SystemResetWarning,0840.6,5.01,000.00,026.2,025.0,000.0,034.4,027.9,15.4,0000.0,0003.81,0008.82,0003.41
2023-10-15 16:04:00,SystemResetWarning,0840.6,5.00,000.00,026.2,025.0,000.0,034.5,027.9,15.5,0000.0,0003.84,0008.82,0003.42
2023-10-15 16:05:00,SystemResetWarning,0840.6,5.00,000.00,026.2,025.1,000.0,034.5,028.0,15.7,0000.0,0003.86,0008.57,0003.43
2023-10-15 16:06:00,SystemResetWarning,0840.6,5.00,000.00,026.2,025.1,000.0,034.5,028.0,15.8,0000.0,0003.86,0008.55,0003.43
2023-10-15 16:07:00,SystemResetWarning,0840.6,4.99,000.00,026.2,025.1,000.0,034.5,028.0,16.0,0000.0,0003.88,0009.03,0003.42
2023-10-15 16:08:00,SystemResetWarning,0840.6,5.00,000.00,026.2,025.1,000.0,034.5,028.0,15.7,0000.0,0003.88,0009.00,0003.43
2023-10-15 16:09:00,SystemResetWarning,0840.6,5.00,000.00,026.2,025.1,000.0,034.6,028.0,15.6,0000.0,0003.89,0009.11,0003.44
2023-10-15 16:10:00,SystemResetWarning,0840.6,5.00,000.00,026.3,025.1,000.0,034.6,028.0,15.8,0000.0,0003.91,0010.19,0003.44
2023-10-15 16:11:00,SystemResetWarning,0840.6,5.01,000.00,026.3,025.2,000.0,034.6,028.0,15.9,0000.0,0003.91,0010.60,0003.45
2023-10-15 16:12:00,SystemResetWarning,0840.6,5.00,000.00,026.3,025.2,000.0,034.6,028.1,15.8,0000.0,0003.91,0010.57,0003.47
2023-10-15 16:13:00,SystemResetWarning,0840.6,5.00,000.00,026.3,025.2,000.0,034.6,028.1,16.0,0000.0,0003.93,0009.99,0003.47
2023-10-15 16:14:00,SystemResetWarning,0840.6,5.00,000.00,026.3,025.2,000.0,034.7,028.1,16.0,0000.0,0003.94,0010.04,0003.47
2023-10-15 16:15:00,SystemResetWarning,0840.6,5.01,000.00,026.4,025.2,000.0,034.7,028.1,16.2,0000.0,0003.91,0010.58,0003.47
2023-10-15 16:16:00,SystemResetWarning,0840.6,5.00,000.00,026.4,025.3,000.0,034.7,028.2,16.4,0000.0,0003.90,0011.34,0003.46
2023-10-15 16:17:00,SystemResetWarning,0840.6,4.99,000.00,026.4,025.3,000.0,034.7,028.2,16.3,0000.0,0003.89,0011.74,0003.45
2023-10-15 16:18:00,SystemResetWarning,0840.6,4.99,000.00,026.4,025.3,000.0,034.7,028.2,16.0,0000.0,0003.89,0011.09,0003.45
2023-10-15 16:19:00,SystemResetWarning,0840.6,5.00,000.00,026.4,025.3,000.0,034.7,028.2,16.2,0000.0,0003.87,0010.74,0003.45
2023-10-15 16:20:00,SystemResetWarning,0840.6,5.00,000.00,026.4,025.3,000.0,034.8,028.2,16.3,0000.0,0003.87,0010.63,0003.44
2023-10-15 16:21:00,SystemResetWarning,0840.6,5.00,000.00,026.5,025.4,000.0,034.8,028.2,16.2,0000.0,0003.84,0009.75,0003.43
2023-10-15 16:22:00,SystemResetWarning,0840.6,5.00,000.00,026.5,025.4,000.0,034.8,028.2,16.0,0000.0,0003.79,0009.67,0003.40
2023-10-15 16:23:00,SystemResetWarning,0840.6,5.00,000.00,026.5,025.4,000.0,034.8,028.3,15.9,0000.0,0003.76,0009.67,0003.39
2023-10-15 16:24:00,SystemResetWarning,0840.6,5.00,000.00,026.5,025.4,000.0,034.8,028.3,16.1,0000.0,0003.76,0009.66,0003.39
2023-10-15 16:25:00,SystemResetWarning,0840.7,5.00,000.00,026.6,025.5,000.0,034.9,028.3,16.1,0000.0,0003.78,0009.80,0003.38
2023-10-15 16:26:00,SystemResetWarning,0840.6,5.00,000.00,026.6,025.5,000.0,034.9,028.3,16.0,0000.0,0003.78,0009.80,0003.40
2023-10-15 16:27:00,SystemResetWarning,0840.6,5.00,000.00,026.6,025.5,000.0,034.9,028.3,16.1,0000.0,0003.80,0008.85,0003.41
2023-10-15 16:28:00,SystemResetWarning,0840.6,5.01,000.00,026.6,025.5,000.0,034.9,028.4,15.9,0000.0,0003.83,0008.51,0003.43
2023-10-15 16:29:00,SystemResetWarning,0840.7,5.00,000.00,026.6,025.5,000.0,034.9,028.4,15.8,0000.0,0003.86,0008.28,0003.46
2023-10-15 16:30:00,SystemResetWarning,0840.7,5.01,000.00,026.6,025.6,000.0,034.9,028.4,15.6,0000.0,0003.89,0008.21,0003.48
2023-10-15 16:31:00,SystemResetWarning,0840.7,5.00,000.00,026.7,025.6,000.0,035.0,028.4,15.4,0000.0,0003.91,0008.12,0003.50
2023-10-15 16:32:00,SystemResetWarning,0840.7,4.99,000.00,026.7,025.6,000.0,035.0,028.4,15.5,0000.0,0003.93,0008.09,0003.52
2023-10-15 16:33:00,SystemResetWarning,0840.7,4.99,000.00,026.7,025.6,000.0,035.0,028.4,15.5,0000.0,0003.99,0007.79,0003.54
2023-10-15 16:34:00,SystemResetWarning,0840.6,5.00,000.00,026.7,025.6,000.0,035.0,028.5,15.5,0000.0,0004.00,0007.66,0003.56
2023-10-15 16:35:00,SystemResetWarning,0840.7,5.01,000.00,026.7,025.6,000.0,035.0,028.5,15.7,0000.0,0004.00,0007.67,0003.57
2023-10-15 16:36:00,SystemResetWarning,0840.6,5.00,000.00,026.8,025.7,000.0,035.1,028.5,15.7,0000.0,0003.97,0007.57,0003.60
2023-10-15 16:37:00,SystemResetWarning,0840.6,4.99,000.00,026.8,025.7,000.0,035.1,028.5,15.8,0000.0,0003.97,0007.02,0003.60
2023-10-15 16:38:00,SystemResetWarning,0840.6,5.00,000.00,026.8,025.7,000.0,035.1,028.5,15.8,0000.0,0003.99,0007.23,0003.61
2023-10-15 16:39:00,SystemResetWarning,0840.7,5.01,000.00,026.8,025.7,000.0,035.1,028.5,15.9,0000.0,0003.99,0007.37,0003.61
2023-10-15 16:40:00,SystemResetWarning,0840.6,5.01,000.00,026.8,025.7,000.0,035.1,028.6,16.0,0000.0,0003.97,0008.11,0003.59
2023-10-15 16:41:00,SystemResetWarning,0840.6,5.01,000.00,026.8,025.8,000.0,035.2,028.6,15.9,0000.0,0003.95,0008.27,0003.59
2023-10-15 16:42:00,SystemResetWarning,0840.6,5.00,000.00,026.9,025.8,000.0,035.2,028.6,16.0,0000.0,0003.98,0008.71,0003.57
2023-10-15 16:43:00,SystemResetWarning,0840.6,5.00,000.00,026.9,025.8,000.0,035.2,028.6,15.9,0000.0,0004.00,0008.62,0003.57
2023-10-15 16:44:00,SystemResetWarning,0840.6,5.00,000.00,026.9,025.8,000.0,035.2,028.6,15.9,0000.0,0003.97,0008.49,0003.57
2023-10-15 16:45:00,SystemResetWarning,0840.6,5.00,000.00,026.9,025.8,000.0,035.2,028.7,15.8,0000.0,0003.96,0008.38,0003.57
2023-10-15 16:46:00,SystemResetWarning,0840.6,5.00,000.00,026.9,025.8,000.0,035.2,028.7,15.9,0000.0,0003.97,0008.37,0003.57
2023-10-15 16:47:00,SystemResetWarning,0840.6,4.99,000.00,027.0,025.8,000.0,035.3,028.7,15.9,0000.0,0003.96,0008.39,0003.56
2023-10-15 16:48:00,SystemResetWarning,0840.6,5.00,000.00,027.0,025.9,000.0,035.3,028.7,15.8,0000.0,0003.96,0008.45,0003.56
2023-10-15 16:49:00,SystemResetWarning,0840.6,5.00,000.00,027.0,025.9,000.0,035.3,028.7,15.9,0000.0,0003.93,0008.59,0003.55
2023-10-15 16:50:00,SystemResetWarning,0840.6,5.00,000.00,027.0,025.9,000.0,035.3,028.8,16.1,0000.0,0003.91,0008.95,0003.56
2023-10-15 16:51:00,SystemResetWarning,0840.5,5.00,000.00,027.0,025.9,000.0,035.3,028.8,16.0,0000.0,0003.93,0008.55,0003.58
2023-10-15 16:52:00,SystemResetWarning,0840.5,5.00,000.00,027.0,025.9,000.0,035.3,028.8,16.1,0000.0,0003.92,0008.30,0003.58
2023-10-15 16:53:00,SystemResetWarning,0840.5,5.00,000.00,027.1,026.0,000.0,035.4,028.8,16.0,0000.0,0003.88,0007.86,0003.60
2023-10-15 16:54:00,SystemResetWarning,0840.5,5.00,000.00,027.1,026.0,000.0,035.4,028.8,16.2,0000.0,0003.86,0007.84,0003.60
2023-10-15 16:55:00,SystemResetWarning,0840.5,4.99,000.00,027.1,026.0,000.0,035.4,028.8,16.2,0000.0,0003.89,0008.09,0003.61
2023-10-15 16:56:00,SystemResetWarning,0840.5,4.99,000.00,027.1,026.0,000.0,035.4,028.9,16.2,0000.0,0003.93,0008.15,0003.63
2023-10-15 16:57:00,SystemResetWarning,0840.5,4.99,000.00,027.1,026.0,000.0,035.5,028.9,16.2,0000.0,0003.93,0008.07,0003.65
2023-10-15 16:58:00,SystemResetWarning,0840.4,5.00,000.00,027.2,026.1,000.0,035.5,028.9,16.4,0000.0,0003.95,0008.37,0003.65
2023-10-15 16:59:00,SystemResetWarning,0840.5,5.01,000.00,027.2,026.1,000.0,035.5,028.9,16.4,0000.0,0003.97,0009.10,0003.66
